| time (UTC) | temp C | wind direction | speed KPH | gust KPH | rain 1hr cm | rain 24hr cm | rain mn cm | humidity % | barometer mb |
| 20260901233100 | 27 | 0 | 0.0 | 0.0 | 0.00 | 0.03 | 0.00 | 95 | 1014.4 |
| 20260901231606 | 27 | 0 | 0.0 | 0.0 | 0.00 | 0.03 | 0.00 | 94 | 1014.5 |
| 20260901230138 | 28 | 0 | 0.0 | 1.6 | 0.00 | 0.03 | 0.00 | 94 | 1014.5 |
| 20260901224601 | 28 | 0 | 0.0 | 0.0 | 0.00 | 0.13 | 0.00 | 93 | 1014.5 |
| 20260901223119 | 28 | 0 | 0.0 | 1.6 | 0.00 | 0.13 | 0.00 | 93 | 1014.8 |
| 20260901221603 | 28 | 129 | 0.0 | 1.6 | 0.00 | 0.13 | 0.00 | 91 | 1014.9 |
| 20260901220108 | 28 | 0 | 0.0 | 1.6 | 0.00 | 0.13 | 0.00 | 90 | 1014.9 |
| 20260901214602 | 29 | 164 | 1.6 | 4.8 | 0.00 | 0.28 | 0.00 | 88 | 1014.9 |
| 20260901213106 | 30 | 0 | 0.0 | 3.2 | 0.00 | 0.28 | 0.00 | 87 | 1014.9 |
| 20260901211603 | 30 | 134 | 1.6 | 3.2 | 0.00 | 0.28 | 0.00 | 85 | 1015.0 |
| 20260901210104 | 30 | 143 | 0.0 | 1.6 | 0.00 | 0.28 | 0.00 | 88 | 1015.0 |
| 20260901204605 | 30 | 0 | 0.0 | 3.2 | 0.00 | 0.58 | 0.00 | 89 | 1015.2 |
| 20260901203120 | 30 | 130 | 1.6 | 4.8 | 0.00 | 0.58 | 0.00 | 88 | 1015.3 |
| 20260901201612 | 29 | 0 | 1.6 | 4.8 | 0.00 | 0.58 | 0.00 | 90 | 1015.5 |
| 20260901200106 | 28 | 154 | 0.0 | 3.2 | 0.00 | 0.58 | 0.00 | 91 | 1015.6 |
| 20260901194605 | 29 | 133 | 0.0 | 4.8 | 0.00 | 0.58 | 0.00 | 89 | 1015.6 |
| 20260901193055 | 30 | 111 | 1.6 | 11.3 | 0.00 | 0.58 | 0.00 | 87 | 1015.7 |
| 20260901191603 | 30 | 118 | 0.0 | 4.8 | 0.00 | 0.58 | 0.00 | 86 | 1015.6 |
| 20260901190112 | 30 | 75 | 0.0 | 9.7 | 0.00 | 0.58 | 0.00 | 86 | 1015.8 |
| 20260901184602 | 30 | 131 | 1.6 | 8.0 | 0.00 | 0.58 | 0.00 | 87 | 1016.0 |
| 20260901183110 | 30 | 107 | 1.6 | 8.0 | 0.00 | 0.58 | 0.00 | 83 | 1016.0 |
| 20260901181604 | 31 | 152 | 0.0 | 6.4 | 0.00 | 0.58 | 0.00 | 80 | 1016.0 |
| 20260901180104 | 31 | 0 | 0.0 | 6.4 | 0.00 | 0.58 | 0.00 | 78 | 1015.9 |
| 20260901174607 | 31 | 0 | 1.6 | 9.7 | 0.00 | 0.58 | 0.00 | 78 | 1016.0 |
| 20260901173131 | 31 | 131 | 0.0 | 4.8 | 0.00 | 0.58 | 0.00 | 83 | 1016.1 |
| 20260901171621 | 30 | 34 | 0.0 | 8.0 | 0.00 | 0.58 | 0.00 | 78 | 1016.2 |
| 20260901170104 | 30 | 0 | 0.0 | 3.2 | 0.00 | 0.58 | 0.00 | 82 | 1016.4 |
| 20260901164633 | 30 | 133 | 0.0 | 6.4 | 0.00 | 0.58 | 0.00 | 87 | 1016.4 |
| 20260901163053 | 30 | 155 | 0.0 | 4.8 | 0.00 | 0.58 | 0.00 | 83 | 1016.5 |
| 20260901161607 | 31 | 174 | 3.2 | 6.4 | 0.00 | 0.58 | 0.00 | 77 | 1016.6 |
| 20260901160105 | 31 | 102 | 1.6 | 4.8 | 0.00 | 0.58 | 0.00 | 78 | 1016.7 |
| 20260901154600 | 30 | 8 | 3.2 | 8.0 | 0.00 | 0.58 | 0.00 | 76 | 1016.8 |
| 20260901153059 | 30 | 0 | 1.6 | 6.4 | 0.00 | 0.58 | 0.00 | 78 | 1017.1 |
| 20260901151555 | 30 | 143 | 0.0 | 4.8 | 0.00 | 0.58 | 0.00 | 81 | 1017.3 |
| 20260901144600 | 29 | 0 | 0.0 | 4.8 | 0.00 | 0.58 | 0.00 | 88 | 1017.4 |
| 20260901143100 | 28 | 347 | 1.6 | 8.0 | 0.00 | 0.58 | 0.00 | 86 | 1017.5 |
| 20260901141609 | 28 | 44 | 1.6 | 6.4 | 0.00 | 0.58 | 0.00 | 88 | 1017.6 |
| 20260901140056 | 27 | 292 | 1.6 | 6.4 | 0.00 | 0.58 | 0.00 | 91 | 1017.5 |
| 20260901134604 | 26 | 0 | 1.6 | 6.4 | 0.00 | 0.58 | 0.00 | 95 | 1017.4 |
| 20260901133104 | 26 | 339 | 3.2 | 6.4 | 0.00 | 0.58 | 0.00 | 97 | 1017.6 |
| 20260901131603 | 25 | 342 | 0.0 | 6.4 | 0.00 | 0.58 | 0.00 | 100 | 1017.6 |
| 20260901130106 | 25 | 359 | 1.6 | 4.8 | 0.00 | 0.58 | 0.00 | 100 | 1017.6 |
| 20260901124602 | 24 | 337 | 3.2 | 6.4 | 0.00 | 0.58 | 0.00 | 100 | 1017.7 |
| 20260901123101 | 24 | 316 | 0.0 | 8.0 | 0.00 | 0.58 | 0.00 | 100 | 1017.8 |
| 20260901121613 | 23 | 0 | 0.0 | 0.0 | 0.00 | 0.58 | 0.00 | 100 | 1017.7 |
| 20260901120124 | 24 | 333 | 0.0 | 4.8 | 0.00 | 0.58 | 0.00 | 100 | 1017.7 |
| 20260901114559 | 23 | 0 | 0.0 | 0.0 | 0.00 | 0.58 | 0.00 | 100 | 1017.6 |
| 20260901113103 | 23 | 0 | 0.0 | 0.0 | 0.00 | 0.58 | 0.00 | 100 | 1017.2 |
| 20260901111609 | 23 | 0 | 0.0 | 0.0 | 0.00 | 0.58 | 0.00 | 100 | 1017.2 |
| 20260901110057 | 23 | 0 | 0.0 | 0.0 | 0.00 | 0.58 | 0.00 | 100 | 1017.2 |
| 20260901104603 | 23 | 0 | 0.0 | 0.0 | 0.00 | 0.58 | 0.00 | 100 | 1017.3 |
| 20260901103124 | 23 | 0 | 0.0 | 0.0 | 0.00 | 0.58 | 0.00 | 100 | 1017.2 |
| 20260901101602 | 23 | 0 | 0.0 | 0.0 | 0.00 | 0.58 | 0.00 | 100 | 1017.2 |
| 20260901100106 | 23 | 0 | 0.0 | 0.0 | 0.00 | 0.58 | 0.00 | 100 | 1017.1 |
| 20260901094600 | 22 | 0 | 0.0 | 1.6 | 0.00 | 0.58 | 0.00 | 100 | 1017.1 |
| 20260901093125 | 22 | 0 | 0.0 | 0.0 | 0.00 | 0.58 | 0.00 | 100 | 1017.0 |
| 20260901091608 | 22 | 0 | 0.0 | 0.0 | 0.00 | 0.58 | 0.00 | 100 | 1017.0 |
| 20260901090101 | 22 | 0 | 0.0 | 0.0 | 0.00 | 0.58 | 0.00 | 100 | 1017.1 |
| 20260901084558 | 22 | 0 | 0.0 | 0.0 | 0.00 | 0.58 | 0.00 | 100 | 1017.2 |
| 20260901083056 | 22 | 0 | 0.0 | 0.0 | 0.00 | 0.58 | 0.00 | 100 | 1017.3 |
| 20260901081615 | 22 | 0 | 0.0 | 0.0 | 0.00 | 0.58 | 0.00 | 100 | 1017.2 |
| 20260901080103 | 22 | 0 | 0.0 | 0.0 | 0.00 | 0.58 | 0.00 | 100 | 1017.2 |
| 20260901074559 | 22 | 0 | 0.0 | 0.0 | 0.00 | 0.58 | 0.00 | 100 | 1017.3 |
| 20260901073104 | 22 | 0 | 0.0 | 1.6 | 0.00 | 0.58 | 0.00 | 100 | 1017.4 |
| 20260901071606 | 22 | 0 | 0.0 | 0.0 | 0.00 | 0.58 | 0.00 | 100 | 1017.5 |
| 20260901070105 | 22 | 0 | 0.0 | 0.0 | 0.00 | 0.58 | 0.00 | 100 | 1017.4 |
| 20260901064605 | 22 | 0 | 0.0 | 0.0 | 0.00 | 0.58 | 0.00 | 100 | 1017.6 |
| 20260901063100 | 22 | 0 | 0.0 | 0.0 | 0.00 | 0.58 | 0.00 | 100 | 1017.8 |
| 20260901061600 | 22 | 0 | 0.0 | 0.0 | 0.00 | 0.58 | 0.00 | 100 | 1017.9 |
| 20260901060106 | 22 | 0 | 0.0 | 0.0 | 0.00 | 0.58 | 0.00 | 100 | 1018.1 |
| 20260901054603 | 22 | 0 | 0.0 | 0.0 | 0.00 | 0.58 | 0.00 | 100 | 1018.2 |
| 20260901053122 | 22 | 0 | 0.0 | 0.0 | 0.00 | 0.58 | 0.00 | 100 | 1018.4 |
| 20260901051557 | 22 | 0 | 0.0 | 0.0 | 0.00 | 0.58 | 0.00 | 100 | 1018.5 |
| 20260901050104 | 22 | 0 | 0.0 | 0.0 | 0.00 | 0.58 | 0.00 | 100 | 1018.5 |
| 20260901044558 | 22 | 0 | 0.0 | 0.0 | 0.00 | 0.58 | 0.00 | 100 | 1018.3 |
| 20260901043125 | 22 | 0 | 0.0 | 0.0 | 0.00 | 0.58 | 0.00 | 100 | 1018.3 |
| 20260901041610 | 22 | 0 | 0.0 | 0.0 | 0.00 | 0.58 | 0.00 | 100 | 1018.1 |
| 20260901040106 | 22 | 0 | 0.0 | 0.0 | 0.00 | 0.58 | 0.00 | 100 | 1018.2 |
| 20260901034607 | 22 | 0 | 0.0 | 0.0 | 0.00 | 0.58 | 0.58 | 100 | 1018.2 |
| 20260901033108 | 22 | 0 | 0.0 | 0.0 | 0.00 | 0.58 | 0.58 | 100 | 1018.2 |
| 20260901031605 | 22 | 0 | 0.0 | 0.0 | 0.00 | 0.58 | 0.58 | 100 | 1018.2 |
| 20260901030103 | 22 | 0 | 0.0 | 0.0 | 0.00 | 0.58 | 0.58 | 100 | 1018.3 |
| 20260901024607 | 22 | 0 | 0.0 | 0.0 | 0.00 | 0.58 | 0.58 | 100 | 1018.4 |
| 20260901023102 | 22 | 0 | 0.0 | 1.6 | 0.00 | 0.58 | 0.58 | 100 | 1018.5 |
| 20260901021609 | 22 | 0 | 0.0 | 0.0 | 0.00 | 0.58 | 0.58 | 100 | 1018.8 |
| 20260901020109 | 22 | 0 | 0.0 | 0.0 | 0.00 | 0.58 | 0.58 | 100 | 1019.0 |
| 20260901014605 | 22 | 0 | 0.0 | 0.0 | 0.00 | 0.58 | 0.58 | 100 | 1019.1 |
| 20260901013107 | 22 | 0 | 0.0 | 0.0 | 0.00 | 0.58 | 0.58 | 100 | 1019.1 |
| 20260901011603 | 22 | 0 | 0.0 | 0.0 | 0.00 | 0.58 | 0.58 | 100 | 1019.0 |
| 20260901010120 | 22 | 0 | 0.0 | 0.0 | 0.00 | 0.58 | 0.58 | 100 | 1018.9 |
| 20260901004617 | 22 | 0 | 0.0 | 0.0 | 0.00 | 0.58 | 0.58 | 100 | 1018.7 |
| 20260901003103 | 22 | 0 | 0.0 | 0.0 | 0.00 | 0.58 | 0.58 | 100 | 1018.6 |
| 20260901001608 | 22 | 0 | 0.0 | 0.0 | 0.00 | 0.58 | 0.58 | 100 | 1018.7 |
| 20260901000108 | 22 | 0 | 0.0 | 0.0 | 0.03 | 0.58 | 0.58 | 100 | 1018.6 |
| 20260831234605 | 22 | 0 | 0.0 | 0.0 | 0.03 | 0.58 | 0.58 | 100 | 1018.6 |